Starlink 33663

operational
NORAD ID: 63652 Int'l Des: 2025-083 Owner: SPXS Country: US Constellation: starlink
LEOCIRCULAR

Starlink 33663について

説明を読み込み中...

リアルタイム位置

3D地球を読み込み中...

次回通過

高度履歴

Altitude vs Time

uPlot chart will show altitude changes over time

軌道要素

1 63652U 25083U 25260.05276101 .00014358 00000-0 53039-3 0 9991
2 63652 42.9994 265.6097 0001457 262.8717 97.1969 15.27571284 23510
Epoch: Sep 17, 2025 • Age: 10 hours

現在のステータス

高度 485.9 km
速度 7.62 km/s
衛星直下点 -16.65°S, 68.48°W
打ち上げ日 Apr 25, 2025
運用期間 0.3 years
タイプ internet

技術仕様

分類 Payload
質量 575.00 kg
乾燥質量 530.00 kg
総質量 575.00 kg
長さ 0.30 m
直径 4.10 m
スパン 29.00 m
形状 Box + pan
製造者 SPXS
バスタイプ Starlink V2MO
フェーズステータス In Orbit
所有者/国 SPXS/US

大規模コンステレーション

Loading constellations...